Regional Weather Roundup
Issued by NWS Portland, ME

Home | Current Version | Previous Version | Text Only | Print | Product List | Glossary On
Versions: 1 2 3 4 5 6 7 8 9 10 11 12 13 14 15 16 17 18 19 20 21 22 23 24 25 26 27 28 29 30 31 32 33 34 35 36 37 38 39 40 41 42 43 44 45 46 47 48 49 50
000
ASUS41 KGYX 240510
RWRGYX
WEATHER ROUNDUP FOR MAINE AND NEW HAMPSHIRE
NATIONAL WEATHER SERVICE GRAY ME
100 AM EDT WED MAY 24 2017

MEZ002-005-006-010-012-015-018-020-021-024-026-027-029-240600-
MAINE

CITY           SKY/WX    TMP DP  RH WIND       PRES   REMARKS
PORTLAND       CLOUDY    51  48  89 CALM      29.81S
SANFORD        CLOUDY    47  47 100 CALM      29.80F
BAR HARBOR     MOCLDY    46  45  96 CALM      29.81S
WISCASSET      CLOUDY    49  47  93 CALM      29.82S
ROCKLAND       CLOUDY    50  48  93 W5        29.81R
FRYEBURG       CLOUDY    48  47  96 CALM      29.82F
LEWISTONAUBURN CLOUDY    52  51  97 CALM      29.81F
AUGUSTA        PTCLDY    54  50  86 W3        29.81S
WATERVILLE     PTCLDY    55  46  71 N3        29.78F
BANGOR         CLOUDY    48  47  96 CALM      29.80S
GREENVILLE       N/A     51  44  77 CALM      29.80S
MILLINOCKET    CLEAR     47  46  97 NW3       29.81R
HOULTON        PTCLDY    42  42 100 CALM      29.77S
PRESQUE ISLE   CLEAR     44  42  93 CALM      29.78R
FRENCHVILLE    CLEAR     51  42  71 W10       29.75S
CARIBOU        PTCLDY    49  43  80 CALM      29.76R
$$

NHZ002-005-008-009-011-012-014-240600-
NEW HAMPSHIRE

CITY           SKY/WX    TMP DP  RH WIND       PRES   REMARKS
PORTSMOUTH     CLOUDY    53  51  92 CALM      29.79F
ROCHESTER      CLOUDY    52  49  89 NW6       29.79F
NASHUA         CLOUDY    54  53  97 CALM      29.82S
MANCHESTER     CLOUDY    57  50  77 CALM      29.80S
CONCORD        PTCLDY    52  49  89 CALM      29.81F
LACONIA        CLOUDY    51  49  92 CALM      29.82F
PLYMOUTH       FAIR      49  48  95 CALM      29.82F
BERLIN         CLOUDY    49  45  86 CALM      29.84F
WHITEFIELD     CLOUDY    52  47  83 CALM      29.83F
JAFFREY        CLOUDY    51  51 100 CALM      29.83F
KEENE          PTCLDY    51  50  96 CALM      29.82F
LEBANON        CLOUDY    53  51  93 CALM      29.81F
MT WASHINGTON  FOG       39  39 100 NW26        N/A  VSB 1/8
$$

VTZ005-007-008-240600-
VERMONT

CITY           SKY/WX    TMP DP  RH WIND       PRES   REMARKS
ST JOHNSBURY     N/A     53  51  93 MISG      29.81F
MONTPELIER     CLOUDY    50  49  96 CALM      29.85F
BURLINGTON     PTCLDY    57  53  86 CALM      29.79F
$$

MAZ007-012-024-CTZ003-RIZ002-NYZ038-NYZ072-240600-
SOUTHERN NEW ENGLAND AND NY

CITY           SKY/WX    TMP DP  RH WIND       PRES   REMARKS
BOSTON         CLOUDY    58  54  86 S6        29.82S
WORCESTER      PTCLDY    58  46  64 W3        29.82F
NANTUCKET      CLOUDY    52  50  93 S8        29.83F
PROVIDENCE     CLOUDY    56  55  97 CALM      29.81F
HARTFORD       CLOUDY    55  53  93 CALM      29.79F
ALBANY         CLOUDY    57  50  77 CALM      29.79F
NEW YORK CITY  CLOUDY    61  50  67 NE5       29.76F
$$

ANZ081-ANZ082-ANZ150-NHZ014-MEZ023>029-240600-
COASTAL MARINE OBSERVATIONS

STATION/POSITION TIME  TEMP    WIND        PRES    WAVE
                       AIR SEA DIR/SP/G            HT/PER
                 (UTC) (F)     (DEG/KT/KT) (MB)    (FT/S)
MOUNT DESERT ROC 0500   46                 1009.3S
ISLE OF SHOALS   0400   55     200/  9/  9 1009.3F
JEFFREYS LEDGE   0406      51                N/A     2/ 5
CASHES LEDGE BUO 0450   49 49              1009.5S   2/ 6
GEORGES BANK BUO 0450   47 45              1009.7F   5/ 7
$$

.............KEY..............
   WCI - WIND CHILL
   TC  - TEMPERATURE IN CELSIUS
   VSB - VISIBILITY IN MILES
   HX  - HEAT INDEX
   FAIR- INDICATES FEW OR NO CLOUDS BELOW 12,000 FT, WITH NO
         SIGNIFICANT WEATHER AND/OR OBSTRUCTIONS TO VISIBILITY.






USA.gov is the U.S. government's official web portal to all federal, state and local government web resources and services.